Flag Weather past 2 weeks in Flensburg, Schleswig-Holstein, Germany

Now
45 °F

Passing clouds.


Feels Like: 38 °F
Forecast: 37 / 42 °F
Wind: 13 mph from Southeast

Location: Soenderborg Lufthavn

Current Time: Nov 26, 2014 at 7:37:05 AM

Latest Report: Nov 26, 2014 at 6:50 AM


Visibility: N/A

Pressure: 30.24 "Hg

Humidity: 93%

Dew point: 43 °F

Location of FlensburgLocation

Historic Weather in Flensburg — Graph

°F

Flensburg temperature yesterday

Maximum temperature yesterday: 50 °F (at 12:50 PM)
Minimum temperature yesterday: 39 °F (at 9:11 PM)
Average temperature yesterday: 44 °F

Past Weeks' High & Low Weather Summary

 TemperatureHumidityPressure
High52 °F (Nov 11, 11:50 AM)100% (Nov 12, 11:20 AM)30.39 "Hg (Nov 12, 11:20 AM)
Low39 °F (Nov 20, 6:20 AM)71% (Nov 22, 11:50 AM)29.62 "Hg (Nov 16, 1:31 PM)
Average48 °F91%29.98 "Hg
* Reported Nov 11 5:50 AM — Nov 26 5:50 AM, Flensburg, Weather by CustomWeather, © 2014

Note: Actual official high and low records may vary slightly from our data, if they occured in-between our weather recording intervals... More about our weather records

Advertising

Flensburg weather history for previous 24 hours

 ConditionsComfort  
Time TempWeatherWind HumidityBarometerVisibility
5:50 AM
Nov 26
45 °FPassing clouds.10 mph93%30.24 "HgN/A
9:50 PM
Nov 25
41 °FFog.No wind93%30.30 "Hg3 mi
9:11 PM39 °FFog.2 mph100%30.30 "Hg3 mi
7:50 PM43 °FPassing clouds.1 mph93%30.30 "Hg6 mi
6:56 PM41 °FPassing clouds.1 mph93%30.30 "HgN/A
5:50 PM43 °FClear.1 mph93%30.30 "Hg10 mi
4:50 PM45 °FClear.No wind87%30.30 "Hg10 mi
3:52 PM46 °FSunny.1 mph82%30.30 "Hg10 mi
2:50 PM48 °FSunny.3 mph82%30.30 "Hg10 mi
1:50 PM50 °FSunny.2 mph82%30.30 "Hg10 mi
12:50 PM50 °FSunny.2 mph76%30.30 "Hg10 mi
11:53 AM48 °FSunny.1 mph82%30.33 "Hg10 mi
10:50 AM45 °FSunny.1 mph87%30.33 "Hg10 mi
9:50 AM43 °FSunny.1 mph93%30.33 "Hg10 mi
8:55 AM41 °FSunny.6 mph93%30.30 "Hg10 mi
7:50 AM41 °FClear.3 mph93%30.30 "Hg10 mi
Weather by CustomWeather, © 2014

See weather overviewHow to use our weather pages